Hundvaag 1 weather for Aug 1996
Month no. 110
Obs.
Da.
Temp. Dew Point Precip. Wind
Speed
Wind gusts Cloud cover Press. Humidity Wind dir. Sunny OPT
01.08.1996 12,8   3,8     8          
02.08.1996 10,6   21,4     9          
03.08.1996 12,4   4,2     0       1  
04.08.1996 13,7   0,8     4       1  
05.08.1996 10,5   0,0     9       1  
06.08.1996 15,6   0,0     10       1  
07.08.1996 17,6   0,0     1          
08.08.1996 17,5   0,1     1          
09.08.1996 15,6   0,0     0          
10.08.1996 17,8   0,0     0          
11.08.1996 17,5   0,0     6       1  
12.08.1996 17,5   0,0     9       1  
13.08.1996 15,0   0,0     10       1  
14.08.1996 14,6   0,0     10       1  
15.08.1996 13,9   0,0     0       1  
16.08.1996 13,3   0,0     0       1  
17.08.1996 15,4   0,0     0       1  
18.08.1996 14,8   0,0     10       1  
19.08.1996 16,4   0,0     0       1  
20.08.1996 16,0   0,0     10       1  
21.08.1996 18,6   0,0     10       1  
22.08.1996 20,0   0,0     10          
23.08.1996 18,2   3,0     1          
24.08.1996 16,2   34,0     0          
25.08.1996 14,7   9,0     1       1  
26.08.1996 12,7   5,6     5          
27.08.1996 11,3   3,7     8       1  
28.08.1996 11,9   0,0     2       1  
29.08.1996 16,0   0,0     8          
30.08.1996 13,8   22,0     0          
31.08.1996 12,7   10,0     0       1  
Avrg/Sum 15,0   117,6     4,6       19